Location: Newark
(52.4787°S, 179.0532°W)
Time: 04:53:25
(UTC+00:00)

ISS - Pass Details

Date: 25 October 2019
Orbit: 412 x 421 km, 51.6° (Epoch: 19 November)

Event Time Altitude Azimuth Distance (km) Brightness Sun altitude
Rises 09:27:28 0° 265° (W) 2,383 0.7 -19.4°
Reaches altitude 10° 09:29:34 10° 267° (W) 1,518 -0.4 -19.6°
Enters shadow 09:32:42 66° 312° (NW) 471 -3.7 -19.9°
